This demonstration page uses our WeatherBlox Daily Observations layout. Learn more.

Left ArrowRight Arrow

Hourly Observations for July 18, 2015

Temp ( °F °C ) Dew Point ( °F °C ) Humidity (%) Winds ( mph kmh ) Pressure ( in mb ) Visibility ( mi km ) Precip ( " mm )
12:51 am 00:51 Partly Cloudy 73 22.8 63 17.2 71 71 E 3 6 29.85 1011 10 16.0934 N/A
1:51 am 01:51 Clear 74 23.3 61 16.1 64 64 S 6 9 29.85 1011 10 16.0934 N/A
2:51 am 02:51 Clear 71 21.7 61 16.1 71 71 ENE 6 9 29.86 1011 10 16.0934 N/A
3:51 am 03:51 Clear 70 21.1 61 16.1 73 73 N N/A 29.86 1011 10 16.0934 N/A
4:51 am 04:51 Clear 70 21.1 57 13.9 64 64 SSE 3 6 29.88 1012 10 16.0934 N/A
5:51 am 05:51 Sunny 69 20.6 59 15 70 70 E 3 6 29.89 1012 10 16.0934 N/A
6:51 am 06:51 Sunny 73 22.8 59 15 62 62 ESE 7 11 29.93 1014 10 16.0934 N/A
7:51 am 07:51 Sunny 77 25 60 15.6 56 56 N N/A 29.93 1014 10 16.0934 N/A
8:51 am 08:51 Sunny 84 28.9 59 15 43 43 WNW 10 17 29.93 1013 10 16.0934 N/A
9:51 am 09:51 Sunny 86 30 58 14.4 39 39 WNW 12 19 29.91 1013 10 16.0934 N/A
10:51 am 10:51 Sunny 90 32.2 58 14.4 34 34 WNW 14 22 29.91 1013 10 16.0934 N/A
11:51 am 11:51 Sunny 92 33.3 57 13.9 31 31 NW 15 24 29.88 1012 10 16.0934 N/A
12:51 pm 12:51 Sunny 93 33.9 56 13.3 29 29 WNW 17 28 29.85 1011 10 16.0934 N/A
1:51 pm 13:51 Sunny 94 34.4 54 12.2 26 26 W 15 24 29.81 1010 10 16.0934 N/A
2:51 pm 14:51 Sunny 92 33.3 52 11.1 26 26 W 17 28 29.8 1009 10 16.0934 N/A
3:51 pm 15:51 Sunny 90 32.2 56 13.3 32 32 W 14 22 29.81 1009 10 16.0934 N/A
4:51 pm 16:51 Mostly Sunny 88 31.1 57 13.9 35 35 SW 8 13 29.81 1009 10 16.0934 N/A
5:51 pm 17:51 Sunny 88 31.1 59 15 38 38 SSW 7 11 29.82 1010 10 16.0934 N/A
6:51 pm 18:51 Sunny 87 30.6 58 14.4 37 37 W 10 17 29.82 1010 10 16.0934 N/A
7:51 pm 19:51 Clear 85 29.4 59 15 42 42 NW 18 30 29.84 1010 10 16.0934 N/A
8:51 pm 20:51 Clear 83 28.3 60 15.6 46 46 NW 20 31 29.86 1011 10 16.0934 N/A
9:51 pm 21:51 Partly Cloudy 81 27.2 62 16.7 53 53 NW 22 35 29.89 1012 10 16.0934 N/A
10:51 pm 22:51 Mostly Clear 79 26.1 70 21 74 74 NW 20 31 29.91 1013 10 16.0934 N/A
11:51 pm 23:51 Mostly Cloudy 79 26.1 62 16.7 56 56 NW 15 24 29.91 1013 10 16.0934 N/A

Powered by AerisWeather